Tracking 25195 objects as of 19-Jan-2022
HD Live streaming from Space Station
objects crossing your sky now

OPS 1294 (DMSP 5D-2 F7)

Track OPS 1294 (DMSP 5D-2 F7) now!
10-day predictions
OPS 1294 (DMSP 5D-2 F7) is classified as:


NORAD ID: 14506
Int'l Code: 1983-113A
Perigee: 797.5 km
Apogee: 812.3 km
Inclination: 98.3 °
Period: 100.8 minutes
Semi major axis: 7175 km
RCS: 4.7791 m2 (large)
Launch date: November 18, 1983
Source: United States (US)
Launch site: AIR FORCE WESTERN TEST RANGE (AFWTR)
aabbcc
Your satellite tracking list
Your tracking list is empty




NASA's NSSDC Master Catalog

Two Line Element Set (TLE):
1 14506U 83113A   22019.12107850  .00000110  00000-0  60514-4 0  9992
2 14506  98.2859 214.4123 0010377 312.4928 155.9532 14.28197911985840
Source of the keplerian elements: AFSPC